Regional Weather Roundup
Issued by NWS Huntsville, AL

Home | Current Version | Previous Version | Text Only | Print | Product List | Glossary On
Versions: 1 2 3 4 5 6 7 8 9 10 11 12 13 14 15 16 17 18 19 20 21 22 23 24 25 26 27
000
ASUS44 KHUN 070910
RWRHUN

WEATHER ROUNDUP FOR THE TENNESSEE VALLEY
NATIONAL WEATHER SERVICE HUNTSVILLE AL
300 AM CST WED DEC 07 2016

ALZ001>004-071000-
NORTHWEST ALABAMA

CITY           SKY/WX    TMP DP  RH WIND       PRES   REMARKS
COURTLAND HCN    N/A     45 N/A N/A CALM        N/A
RUSSELLVILLE     N/A     43 N/A N/A MISG        N/A
SHOALS AIRPORT CLOUDY    45  38  76 NE6       30.08S
SHOALS TVA RES   N/A     45 N/A N/A MISG        N/A
$$

ALZ005>007-016-071000-
NORTH CENTRAL ALABAMA

CITY           SKY/WX    TMP DP  RH WIND       PRES   REMARKS
CULLMAN AG STN   N/A     45 N/A N/A N3          N/A
DECATUR AP     CLOUDY    44  40  85 NE3       30.06F
HUNTSVILLE AP  CLOUDY    46  39  76 NE7       30.05F
MERIDIANVILLE  CLOUDY    43  36  75 NE7       30.06S
REDSTONE ARSN  CLOUDY    44  39  82 E8        30.04F
VINEMONT AP    FAIR      38  36  91 NE3       30.06S
$$

ALZ008>010-071000-
NORTHEAST ALABAMA

CITY           SKY/WX    TMP DP  RH WIND       PRES   REMARKS
ALBERTVILLE    CLOUDY    43  43 100 N3        30.02F
FORT PAYNE     CLEAR     37  34  87 CALM      30.04R FOG
SCOTTSBORO AP  CLOUDY    45  37  76 N6        30.06S
VALLEY HEAD      N/A     37 N/A N/A MISG        N/A
$$

TNZ076-096-097-071000-
SOUTHEASTERN MIDDLE TENNESSEE

CITY           SKY/WX    TMP DP  RH WIND       PRES   REMARKS
TULLAHOMA      CLOUDY    39  36  87 N6        30.06F WCI  35
WINCHESTER     CLOUDY    41  37  87 NE3       30.05F
$$

...SURROUNDING SITES...

CITY           SKY/WX    TMP DP  RH WIND       PRES   REMARKS
ATLANTA        MOCLDY    49  45  86 NW10      29.98S
ANNISTON       CLOUDY    51  44  77 N5        30.03R
BIRMINGHAM     CLOUDY    48  44  86 N7        30.06S
CHATTANOOGA    CLOUDY    45  38  76 N8        30.05R
CORINTH        CLOUDY    43  37  81 N7        30.10R
DALTON         PTCLDY    43  41  93 NW7       30.03R
GADSDEN        MOCLDY    46  41  82 N7        30.05R
GOLDEN TRNGL   CLOUDY    46  39  76 N5        30.03R
HALEYVILLE     CLOUDY    42  38  85 NE3       30.07R
JACKSON TN     CLOUDY    39  36  89 NE6       30.11F WCI  35
MEMPHIS        CLOUDY    43  39  86 N6        30.11S
NASHVILLE      CLOUDY    40  33  76 N8        30.12R WCI  34
OXFORD MS      CLOUDY    39  37  93 NE6       30.13R WCI  35
ROME           CLOUDY    47  39  74 N7        30.02S
SAVANNAH       CLOUDY    41  36  81 N6        30.11R
TUPELO         CLOUDY    43  38  82 N9        30.09R
TUSCALOOSA     CLOUDY    49  46  90 N5        30.04F
$$

...GULF COAST WEATHER...

CITY           SKY/WX    TMP DP  RH WIND       PRES   REMARKS
GULFPORT       CLOUDY    54  51  90 N8        30.03F
PASCAGOULA     CLOUDY    54  49  83 CALM      30.05R
MOBILE         CLOUDY    54  49  83 N6        30.04R
GULF SHORES    CLOUDY    54  53  96 CALM      30.03S
DESTIN         PTCLDY    57  53  86 N9        30.02R
PANAMA CITY    MOCLDY    56  53  88 N3        30.01R
APPALACHICOLA  MOCLDY    55  54  96 CALM      30.00R
$$





USA.gov is the U.S. government's official web portal to all federal, state and local government web resources and services.